Aéroport int. Stanfield de Halifax, Nouvelle Écosse

Conditions des dernières 24 heures

Date / Heure
(HNA)
Conditions Temp
(°C)
Humidité
(%)
Point de rosée
(°C)
Vent
(km/h)
Pression
(kPa)
Visibilité
(km)
26 novembre 2014
22:00 Pluie faible 2 96 1 ENE 25 101,5 5
21:00 Pluie faible 2 96 1 ENE 20 rafale 30 101,7 3
20:00 Pluie faible 1   96 1 NNE 15 101,9 6
19:00 Pluie faible 2 93 1 NNE 11 102,1 6
18:00 Faible averse de pluie 3 87 1 NE 9 102,2 5
17:00 Faible averse de pluie 4 85 2 NE 10 102,1 24
16:00 Faible averse de pluie 5 73 1 NE 5 102,2 24
15:00 Généralement nuageux 6 63 0 E 3 102,2 24
14:00 Nuageux 7 57 -1 NNO 5 102,1 24
13:00 Nuageux 7 55 -2 NO 16 102,2 24
12:00 Nuageux 7 60 0 NO 21 102,3 24
11:00 Nuageux 7 63 1 NO 13 102,3 24
10:00 Nuageux 7 62 0 NO 14 102,2 24
9:00 Nuageux 7 62 0 NO 10 102,2 24
8:00 Nuageux 7 61 -1 ONO 13 102,1 24
7:00 Nuageux 6 63 0 ONO 16 102,1 24
6:00 Nuageux 7 63 0 ONO 15 102,0 24
5:00 Nuageux 7 66 1 NO 16 101,9 24
4:00 Généralement nuageux 7 69 2 ONO 17 rafale 29 101,8 24
3:00 Généralement nuageux 7 79 3 NO 14 101,7 24
2:00 Généralement nuageux 8 84 6 NO 23 101,6 24
1:00 Généralement nuageux 9 90 8 O 17 101,4 24
0:00 Généralement nuageux 10   91 8 OSO 20 101,3 24
25 novembre 2014
23:00 Généralement nuageux 10   94 9 SO 17 101,3 24
22:00 Généralement nuageux 10   95 9 SO 18 101,2 24
N.D. non disponible
↑ température la plus haute
↓ température la plus basse

Si vous désirez plus de données historiques sur les conditions météo, s.v.p. visitez Données climatologiques en ligne.

Date de modification :